Other Surface Observations
Issued by NWS Tucson, AZ

Home | Current Version | Previous Version | Text Only | Print | Product List | Glossary On
Versions: 1 2 3 4 5 6 7 8 9 10 11 12 13 14 15 16 17 18 19 20 21 22 23 24 25 26 27 28 29 30 31 32 33 34 35 36 37 38 39 40 41 42 43 44 45 46 47 48 49 50
000
SXUS55 KTWC 191415
OSOTWC

WEATHER ROUNDUP FOR SOUTHEAST ARIZONA
NATIONAL WEATHER SERVICE TUCSON AZ
715 AM MST SAT APR 19 2014

AZZ504>506-514-191515-
LOCATION       SKY/WX    TMP DP  RH WIND       PRES   REMARKS
TUCSON         PTSUNNY   62  44  51 CALM      29.99R
DAVIS-MONTHAN  CLOUDY    59  46  61 S1        29.98R
CHILDRENS PARK N/A       60 N/A N/A NE1               PIMA CO DEQ
ALVERNON/22ND  N/A       60 N/A N/A SW1               PIMA CO DEQ
CHERRY/GLENN   N/A      N/A N/A N/A N/A               PIMA CO DEQ
TANGERINE      N/A       59 N/A N/A NE3               PIMA CO DEQ
CONTL RANCH    N/A       61  45  57 SE2               PIMA CO DEQ
GRANT/1ST      N/A       61  46  58 S1                PIMA CO DEQ
CRAYCROFT/22ND N/A       62  47  60 SE2               PIMA CO DEQ
GOLFLINKS/KOLB N/A      N/A N/A N/A N/A               PIMA CO DEQ
AJO/12TH       N/A       59  45  59 S5                PIMA CO DEQ
SAGUARO EAST   N/A       61  47  59 NE4               PIMA CO DEQ
FAIRGROUNDS    N/A       58 N/A N/A SE8               PIMA CO DEQ
SAGUARO        N/A       60  44  55 N3                *SABINO CYN
SAN CARLOS     N/A       52  40  63 SW6               *SAN CARLOS
GREEN VALLEY   N/A       57  44  60 S6                PIMA CO DEQ
HORSE CAMP CYN N/A       56  41  56 E12G16            *ARAVAIPA CYN
RINCON MTNS    N/A       42  34  72 CALM              *NR MANNING CAMP
$$

AZZ509>511-191515-
LOCATION       SKY/WX    TMP DP  RH WIND       PRES   REMARKS
SAFFORD        CLOUDY    60  47  61 E12       30.01R
STRAY HORSE    N/A       42  35  75 E5                *
TRAIL CABIN    N/A       47  37  67 E9G16             *N OF GRANVILLE
BLACK HILLS    N/A       53  45  73 CALM              *N OF FT THOMAS
DRY LAKE       N/A       43  33  67 SE6G10            *NATANES MTNS
NOON CREEK     N/A       53  42  67 SW4               *PINALENO MTNS
COLUMBINE      N/A       33  30  90 CALM              *PINALENO MTNS
GUTHRIE        N/A       44  44  100 NE15G28          *SW OF GUTHRIE
$$

AZZ502-503-513-191515-
LOCATION       SKY/WX    TMP DP  RH WIND       PRES   REMARKS
NOGALES        MOSUNNY   57  43  59 CALM      30.01R
SELLS          N/A       60  37  42 W8G14             *
SASABE         N/A       51  38  60 SW5               *ALTAR VLY
HOPKINS        N/A       48  33  56 E2                *SANTA RITA MTNS
CARR CYN       N/A       48  39  70 SW3               *W OF HEREFORD
$$

AZZ507-508-512-191515-
LOCATION       SKY/WX    TMP DP  RH WIND       PRES   REMARKS
SIERRA VISTA   MOSUNNY   56  44  64 CALM      30.05R
DOUGLAS        PTSUNNY   49  46  90 W3        30.05R
EMPIRE MTNS    N/A       49  43  80 W4                *LAS CIENEGAS NCA
MULESHOE RANCH N/A       52  40  63 W2                *PRESERVE
HEADQUARTERS   N/A       53  44  72 NE5G15            *CHIRICAHUA MTNS
$$

.............................NOTES.............................
THIS IS AN AUTOMATED COLLECTIVE WITH MINIMAL QUALITY CONTROL.
PIMA CO DEQ SITES HAVE NONSTANDARD WIND SENSOR HEIGHTS.
PIMA CO DEQ SITES DO NOT REPORT WIND GUSTS.
* INDICATES WIND SENSORS LOCATED AT 20 FEET INSTEAD OF 33 FEET.
..............................KEY..............................
SKY/WX - SKY CONDITION/WEATHER
TMP    - TEMPERATURE IN FAHRENHEIT
DP     - DEWPOINT IN FAHRENHEIT
RH     - RELATIVE HUMIDITY IN PERCENT
WIND   - DIRECTION AND SPEED IN MILES PER HOUR (MPH)
VRB    - VARIABLE WIND DIRECTION
PRES   - MEAN SEA LEVEL PRESSURE IN INCHES OF MERCURY
         F - FALLING PRESSURE   R - RISING PRESSURE
         S - STEADY PRESSURE
VSB    - VISIBILITY IN MILES
HX     - HEAT INDEX IN FAHRENHEIT
WCI    - WIND CHILL INDEX IN FAHRENHEIT
N/A    - NOT AVAILABLE
AFB    - AIR FORCE BASE
         DAVIS-MONTHAN IS DAVIS-MONTHAN AIR FORCE BASE
CYN    - CANYON
MTNS   - MOUNTAINS
NCA    - NATIONAL CONSERVATION AREA
NR     - NEAR
VLY    - VALLEY
CONTL  - CONTINENTAL
PIMA CO DEQ - PIMA COUNTY DEPT OF ENVIRONMENTAL QUALITY



USA.gov is the U.S. government's official web portal to all federal, state and local government web resources and services.